Notices

What's New in latest Release from April 7th, 2021:

- Updated Glossary, including Speed of Maximum Gust, and Total Hourly Precipitation

- Updated national and regional climate services offices contacts and prices information

- Addition of station inventory lists for 1981-2010, 1971-2000, and 1961-1990 Normals.

If you haven't already, please take our survey and provide feedback about our website: https://eccc.sondage-survey.ca/f/LanguageSelection.aspx?s=442ca660-fcf1-47c0-95a9-59707d6fd709

Hourly Data Report for April 05, 2021

CLYDE RIVER A
NUNAVUT
Current Station Operator: NAVCAN

70°29'09.000" N
68°31'01.000" W
26.50 m
2400804
71090
YCY

Download Data

Hourly Data (April 2021)
Hourly Data Report for April 5, 2021
TIME
LST
Temp Definition
°C
Dew Point Definition
°C
Rel Hum Definition
%
Precip. Amount Definition
mm

Wind Dir Definition
10's deg

Wind Spd Definition
km/h
Visibility Definition
km
Stn Press Definition
kPa
Hmdx Definition


Wind Chill Definition


Weather Definition


00:00 -27.9 -30.5 79 0.0 27 5 16.1 103.08   -33 LegendNANA
01:00 -27.8 -30.5 78 0.0 26 4 16.1 103.03   -32 LegendNANA
02:00 -26.6 -29.7 76 0.0   0 16.1 103.03     LegendNANA
03:00 -27.2 -30.1 77 0.0   0 16.1 103.02     LegendNANA
04:00 -26.3 -29.4 76 0.0 7 5 16.1 102.99   -31 LegendNANA
05:00 -24.9 -27.4 80 0.0 9 5 16.1 102.96   -30 LegendNANA
06:00 -23.6 -26.7 76 0.0 12 5 16.1 102.89   -28 LegendNANA
07:00 -22.3 -26.6 69 0.0 13 22 16.1 102.85   -34 LegendNANA
08:00 -21.5 -26.2 67 0.0 13 24 16.1 102.81   -33 LegendNANA
09:00 -20.7 -24.4 73 0.0 14 30 16.1 102.75   -33 LegendNANA
10:00 -20.2 -23.6 75 0.0 13 24 16.1 102.69   -32 LegendNANA
11:00 -19.4 -22.6 76 0.0 13 24 16.1 102.61   -31 LegendNANA
12:00 -19.0 -22.2 76 0.0 18 13 16.1 102.56   -27 LegendNANA
13:00 -18.6 -22.3 73 0.0 14 21 16.1 102.49   -29 LegendNANA
14:00 -18.3 -21.6 76 0.0 13 24 16.1 102.41   -29 LegendNANA
15:00 -17.9 -21.0 77 0.0 13 21 16.1 102.35   -28 LegendNANA
16:00 -17.7 -20.5 79 0.0 12 17 16.1 102.30   -27 LegendNANA
17:00 -17.0 -20.2 76 0.0 13 17 16.1 102.26   -26 LegendNANA
18:00 -18.0 -20.7 80 0.0 14 22 16.1 102.18   -28 LegendNANA
19:00 -18.6 -21.3 80 0.0 LegendMM 5 16.1 102.16   -23 LegendNANA
20:00 -16.8 -19.0 83 0.0   0 6.4 102.08     Snow
21:00 -16.7 -18.4 87 0.0 LegendMM 11 3.2 102.06   -24 Snow
22:00 -18.4 -20.1 87 0.0 25 17 14.5 102.03   -28 Snow
23:00 -18.9 -21.6 80 0.0 25 15 16.1 102.03   -28 LegendNANA

Notes on Data Quality.

Legend

  • E = Estimated
  • M = Missing
  • NA = Not Available*
  • [empty] = Indicates an unobserved value
Date modified: